Time,TemperatureF,DewpointF,PressureIn,WindDirection,WindDirectionDegrees,WindSpeedMPH,WindSpeedGustMPH,Humidity,HourlyPrecipIn,Conditions,Clouds,dailyrainin,SoftwareType,DateUTC
2013-05-17 00:11:00,61.1,39.0,29.85,NE,55,0.0,0.0,45,0.00,,,0.00,weatherlink.com 1.10,2013-05-17 04:11:00,
2013-05-17 00:27:00,60.2,39.0,29.85,ENE,67,0.0,1.0,46,0.00,,,0.00,weatherlink.com 1.10,2013-05-17 04:27:00,
2013-05-17 00:42:00,59.3,40.0,29.85,NNW,327,0.0,2.0,49,0.00,,,0.00,weatherlink.com 1.10,2013-05-17 04:42:00,
2013-05-17 00:57:00,58.7,39.0,29.86,NNW,329,0.0,2.0,49,0.00,,,0.00,weatherlink.com 1.10,2013-05-17 04:57:00,
2013-05-17 01:13:00,58.4,39.0,29.86,NW,314,1.0,2.0,49,0.00,,,0.00,weatherlink.com 1.10,2013-05-17 05:13:00,
2013-05-17 01:29:00,58.8,37.0,29.86,WNW,284,0.0,4.0,45,0.00,,,0.00,weatherlink.com 1.10,2013-05-17 05:29:00,
2013-05-17 01:44:00,59.7,36.0,29.86,NNW,330,0.0,9.0,41,0.00,,,0.00,weatherlink.com 1.10,2013-05-17 05:44:00,
2013-05-17 01:58:00,59.7,34.0,29.87,WSW,240,0.0,6.0,39,0.00,,,0.00,weatherlink.com 1.10,2013-05-17 05:58:00,
2013-05-17 02:14:00,59.5,34.0,29.88,SE,128,1.0,6.0,39,0.00,,,0.00,weatherlink.com 1.10,2013-05-17 06:14:00,
2013-05-17 02:30:00,59.0,35.0,29.88,NW,321,0.0,6.0,40,0.00,,,0.00,weatherlink.com 1.10,2013-05-17 06:30:00,
2013-05-17 02:45:00,58.2,34.0,29.89,WNW,300,0.0,3.0,40,0.00,,,0.00,weatherlink.com 1.10,2013-05-17 06:45:00,
2013-05-17 03:00:00,57.3,34.0,29.90,NW,309,0.0,2.0,42,0.00,,,0.00,weatherlink.com 1.10,2013-05-17 07:00:00,
2013-05-17 03:15:00,56.5,35.0,29.90,WNW,294,0.0,8.0,45,0.00,,,0.00,weatherlink.com 1.10,2013-05-17 07:15:00,
2013-05-17 03:30:00,56.4,36.0,29.91,NNW,329,0.0,8.0,47,0.00,,,0.00,weatherlink.com 1.10,2013-05-17 07:30:00,
2013-05-17 03:47:00,56.0,37.0,29.92,NW,308,2.0,8.0,49,0.00,,,0.00,weatherlink.com 1.10,2013-05-17 07:47:00,
2013-05-17 04:02:00,55.4,37.0,29.93,WNW,286,0.0,6.0,51,0.00,,,0.00,weatherlink.com 1.10,2013-05-17 08:02:00,
2013-05-17 04:17:00,54.7,39.0,29.93,North,360,2.0,6.0,55,0.00,,,0.00,weatherlink.com 1.10,2013-05-17 08:17:00,
2013-05-17 04:31:00,54.2,39.0,29.93,NW,311,2.0,7.0,56,0.00,,,0.00,weatherlink.com 1.10,2013-05-17 08:31:00,
2013-05-17 04:47:00,53.7,39.0,29.95,NW,314,3.0,7.0,57,0.00,,,0.00,weatherlink.com 1.10,2013-05-17 08:47:00,
2013-05-17 05:04:00,53.1,39.0,29.96,NW,320,0.0,6.0,59,0.00,,,0.00,weatherlink.com 1.10,2013-05-17 09:04:00,
2013-05-17 05:18:00,52.6,39.0,29.97,NW,317,1.0,6.0,60,0.00,,,0.00,weatherlink.com 1.10,2013-05-17 09:18:00,
2013-05-17 05:33:00,52.1,39.0,29.97,NNW,340,0.0,3.0,61,0.00,,,0.00,weatherlink.com 1.10,2013-05-17 09:33:00,
2013-05-17 05:49:00,51.8,39.0,29.98,WNW,298,0.0,4.0,61,0.00,,,0.00,weatherlink.com 1.10,2013-05-17 09:49:00,
2013-05-17 06:05:00,51.4,39.0,29.99,NNE,22,0.0,2.0,63,0.00,,,0.00,weatherlink.com 1.10,2013-05-17 10:05:00,
2013-05-17 06:20:00,51.2,38.0,30.00,NNW,334,0.0,8.0,62,0.00,,,0.00,weatherlink.com 1.10,2013-05-17 10:20:00,
2013-05-17 06:35:00,51.6,39.0,29.99,NW,323,0.0,2.0,62,0.00,,,0.00,weatherlink.com 1.10,2013-05-17 10:35:00,
2013-05-17 06:50:00,52.2,38.0,29.99,NW,317,1.0,8.0,59,0.00,,,0.00,weatherlink.com 1.10,2013-05-17 10:50:00,
2013-05-17 07:05:00,53.0,38.0,29.99,NW,326,0.0,7.0,57,0.00,,,0.00,weatherlink.com 1.10,2013-05-17 11:05:00,
2013-05-17 07:22:00,53.6,38.0,29.99,NNE,13,0.0,5.0,56,0.00,,,0.00,weatherlink.com 1.10,2013-05-17 11:22:00,
2013-05-17 07:37:00,53.9,38.0,30.00,NW,326,0.0,6.0,55,0.00,,,0.00,weatherlink.com 1.10,2013-05-17 11:37:00,
2013-05-17 07:51:00,54.5,38.0,30.02,ESE,115,0.0,8.0,55,0.00,,,0.00,weatherlink.com 1.10,2013-05-17 11:51:00,
2013-05-17 08:06:00,54.8,37.0,30.04,NNW,334,3.0,13.0,52,0.00,,,0.00,weatherlink.com 1.10,2013-05-17 12:06:00,
2013-05-17 08:22:00,55.2,38.0,30.04,WNW,292,2.0,10.0,53,0.00,,,0.00,weatherlink.com 1.10,2013-05-17 12:22:00,
2013-05-17 08:39:00,55.4,38.0,30.04,SW,232,3.0,12.0,53,0.00,,,0.00,weatherlink.com 1.10,2013-05-17 12:39:00,
2013-05-17 08:53:00,55.7,39.0,30.05,ENE,75,8.0,9.0,53,0.00,,,0.00,weatherlink.com 1.10,2013-05-17 12:53:00,
2013-05-17 09:08:00,56.4,40.0,30.05,NNW,340,0.0,9.0,54,0.00,,,0.00,weatherlink.com 1.10,2013-05-17 13:08:00,
2013-05-17 09:23:00,56.9,39.0,30.06,NW,304,2.0,11.0,52,0.00,,,0.00,weatherlink.com 1.10,2013-05-17 13:23:00,
2013-05-17 09:39:00,57.7,40.0,30.05,NW,314,2.0,9.0,52,0.00,,,0.00,weatherlink.com 1.10,2013-05-17 13:39:00,
2013-05-17 09:55:00,58.9,41.0,30.06,North,355,5.0,10.0,51,0.00,,,0.00,weatherlink.com 1.10,2013-05-17 13:55:00,
2013-05-17 10:10:00,59.8,40.0,30.06,NNE,17,2.0,12.0,49,0.00,,,0.00,weatherlink.com 1.10,2013-05-17 14:10:00,
2013-05-17 10:25:00,60.8,40.0,30.06,NNW,345,3.0,10.0,47,0.00,,,0.00,weatherlink.com 1.10,2013-05-17 14:25:00,
2013-05-17 10:40:00,61.8,40.0,30.07,WNW,298,4.0,7.0,45,0.00,,,0.00,weatherlink.com 1.10,2013-05-17 14:40:00,
2013-05-17 10:55:00,62.0,41.0,30.07,NNW,346,0.0,7.0,46,0.00,,,0.00,weatherlink.com 1.10,2013-05-17 14:55:00,
2013-05-17 11:11:00,61.8,39.0,30.08,West,279,1.0,8.0,44,0.00,,,0.00,weatherlink.com 1.10,2013-05-17 15:11:00,
2013-05-17 11:27:00,61.6,39.0,30.07,SW,236,0.0,7.0,44,0.00,,,0.00,weatherlink.com 1.10,2013-05-17 15:27:00,
2013-05-17 11:42:00,61.4,40.0,30.07,NNE,20,2.0,10.0,46,0.00,,,0.00,weatherlink.com 1.10,2013-05-17 15:42:00,
2013-05-17 11:57:00,61.9,40.0,30.07,NW,313,7.0,11.0,44,0.00,,,0.00,weatherlink.com 1.10,2013-05-17 15:57:00,
2013-05-17 12:14:00,64.0,41.0,30.07,NNW,337,3.0,9.0,43,0.00,,,0.00,weatherlink.com 1.10,2013-05-17 16:14:00,
2013-05-17 12:28:00,65.9,43.0,30.07,North,9,0.0,7.0,43,0.00,,,0.00,weatherlink.com 1.10,2013-05-17 16:28:00,
2013-05-17 12:44:00,66.9,39.0,30.07,NNW,329,3.0,8.0,36,0.00,,,0.00,weatherlink.com 1.10,2013-05-17 16:44:00,
2013-05-17 12:58:00,67.6,42.0,30.07,NE,38,0.0,11.0,39,0.00,,,0.00,weatherlink.com 1.10,2013-05-17 16:58:00,
2013-05-17 13:14:00,70.2,40.0,30.07,WNW,293,1.0,10.0,34,0.00,,,0.00,weatherlink.com 1.10,2013-05-17 17:14:00,
2013-05-17 13:30:00,70.3,42.0,30.08,NNW,333,2.0,10.0,36,0.00,,,0.00,weatherlink.com 1.10,2013-05-17 17:30:00,
2013-05-17 13:45:00,68.7,41.0,30.08,NNW,331,2.0,9.0,37,0.00,,,0.00,weatherlink.com 1.10,2013-05-17 17:45:00,
2013-05-17 14:00:00,70.2,43.0,30.08,SSW,212,0.0,6.0,38,0.00,,,0.00,weatherlink.com 1.10,2013-05-17 18:00:00,
2013-05-17 14:15:00,71.6,41.0,30.08,South,173,2.0,9.0,33,0.00,,,0.00,weatherlink.com 1.10,2013-05-17 18:15:00,
2013-05-17 14:30:00,71.3,40.0,30.09,NNE,15,5.0,9.0,32,0.00,,,0.00,weatherlink.com 1.10,2013-05-17 18:30:00,
2013-05-17 14:47:00,72.1,43.0,30.09,NW,313,5.0,15.0,35,0.00,,,0.00,weatherlink.com 1.10,2013-05-17 18:47:00,
2013-05-17 15:02:00,73.0,39.0,30.09,North,9,1.0,11.0,29,0.00,,,0.00,weatherlink.com 1.10,2013-05-17 19:02:00,
2013-05-17 15:17:00,72.6,39.0,30.09,North,360,2.0,10.0,29,0.00,,,0.00,weatherlink.com 1.10,2013-05-17 19:17:00,
2013-05-17 15:32:00,71.5,41.0,30.08,NE,35,2.0,16.0,33,0.00,,,0.00,weatherlink.com 1.10,2013-05-17 19:32:00,
2013-05-17 15:47:00,72.6,39.0,30.08,NNE,13,2.0,8.0,30,0.00,,,0.00,weatherlink.com 1.10,2013-05-17 19:47:00,
2013-05-17 16:04:00,71.5,42.0,30.08,NW,311,3.0,6.0,35,0.00,,,0.00,weatherlink.com 1.10,2013-05-17 20:04:00,
2013-05-17 16:18:00,71.2,40.0,30.08,NNW,330,4.0,7.0,32,0.00,,,0.00,weatherlink.com 1.10,2013-05-17 20:18:00,
2013-05-17 16:33:00,69.5,39.0,30.09,NW,317,2.0,12.0,33,0.00,,,0.00,weatherlink.com 1.10,2013-05-17 20:33:00,
2013-05-17 16:48:00,68.7,40.0,30.09,WNW,302,3.0,11.0,35,0.00,,,0.00,weatherlink.com 1.10,2013-05-17 20:48:00,
2013-05-17 17:04:00,68.0,38.0,30.10,North,349,1.0,7.0,33,0.00,,,0.00,weatherlink.com 1.10,2013-05-17 21:04:00,
2013-05-17 17:20:00,67.6,38.0,30.11,NNE,31,4.0,6.0,34,0.00,,,0.00,weatherlink.com 1.10,2013-05-17 21:20:00,
2013-05-17 17:35:00,67.1,38.0,30.11,NW,317,3.0,6.0,34,0.00,,,0.00,weatherlink.com 1.10,2013-05-17 21:35:00,
2013-05-17 17:50:00,66.6,38.0,30.11,East,90,0.0,8.0,35,0.00,,,0.00,weatherlink.com 1.10,2013-05-17 21:50:00,
2013-05-17 18:05:00,66.1,38.0,30.12,NE,34,0.0,8.0,35,0.00,,,0.00,weatherlink.com 1.10,2013-05-17 22:05:00,
2013-05-17 18:22:00,65.5,38.0,30.12,NW,310,0.0,5.0,36,0.00,,,0.00,weatherlink.com 1.10,2013-05-17 22:22:00,
2013-05-17 18:37:00,65.1,37.0,30.13,NW,322,1.0,4.0,36,0.00,,,0.00,weatherlink.com 1.10,2013-05-17 22:37:00,
2013-05-17 18:52:00,64.6,38.0,30.13,NNW,331,0.0,3.0,37,0.00,,,0.00,weatherlink.com 1.10,2013-05-17 22:52:00,
2013-05-17 19:06:00,64.2,39.0,30.14,NNE,13,0.0,1.0,39,0.00,,,0.00,weatherlink.com 1.10,2013-05-17 23:06:00,
2013-05-17 19:22:00,63.7,39.0,30.14,NW,312,0.0,1.0,41,0.00,,,0.00,weatherlink.com 1.10,2013-05-17 23:22:00,
2013-05-17 19:38:00,62.7,41.0,30.15,NW,312,0.0,0.0,46,0.00,,,0.00,weatherlink.com 1.10,2013-05-17 23:38:00,
2013-05-17 19:54:00,61.0,40.0,30.15,NW,312,0.0,0.0,47,0.00,,,0.00,weatherlink.com 1.10,2013-05-17 23:54:00,
2013-05-17 20:08:00,59.9,40.0,30.16,NW,312,0.0,0.0,49,0.00,,,0.00,weatherlink.com 1.10,2013-05-18 00:08:00,
2013-05-17 20:24:00,58.5,41.0,30.17,NW,312,0.0,0.0,52,0.00,,,0.00,weatherlink.com 1.10,2013-05-18 00:24:00,
2013-05-17 20:40:00,57.4,40.0,30.18,NW,311,0.0,0.0,53,0.00,,,0.00,weatherlink.com 1.10,2013-05-18 00:40:00,
2013-05-17 20:55:00,56.3,40.0,30.18,NW,311,0.0,0.0,54,0.00,,,0.00,weatherlink.com 1.10,2013-05-18 00:55:00,
2013-05-17 21:10:00,55.4,40.0,30.19,NW,312,0.0,0.0,57,0.00,,,0.00,weatherlink.com 1.10,2013-05-18 01:10:00,
2013-05-17 21:25:00,54.7,40.0,30.19,NW,311,0.0,0.0,57,0.00,,,0.00,weatherlink.com 1.10,2013-05-18 01:25:00,
2013-05-17 21:40:00,54.1,39.0,30.19,NW,312,0.0,0.0,58,0.00,,,0.00,weatherlink.com 1.10,2013-05-18 01:40:00,
2013-05-17 21:57:00,53.7,41.0,30.20,NW,311,0.0,0.0,62,0.00,,,0.00,weatherlink.com 1.10,2013-05-18 01:57:00,
2013-05-17 22:12:00,53.1,40.0,30.20,NW,312,0.0,0.0,62,0.00,,,0.00,weatherlink.com 1.10,2013-05-18 02:12:00,
2013-05-17 22:27:00,52.5,41.0,30.21,NW,312,0.0,0.0,64,0.00,,,0.00,weatherlink.com 1.10,2013-05-18 02:27:00,
2013-05-17 22:41:00,52.0,40.0,30.21,NW,312,0.0,0.0,65,0.00,,,0.00,weatherlink.com 1.10,2013-05-18 02:41:00,
2013-05-17 22:57:00,51.5,40.0,30.21,NW,312,0.0,0.0,64,0.00,,,0.00,weatherlink.com 1.10,2013-05-18 02:57:00,
2013-05-17 23:13:00,51.3,39.0,30.21,NW,311,0.0,0.0,62,0.00,,,0.00,weatherlink.com 1.10,2013-05-18 03:13:00,
2013-05-17 23:28:00,51.4,39.0,30.22,NW,311,0.0,0.0,64,0.00,,,0.00,weatherlink.com 1.10,2013-05-18 03:28:00,
2013-05-17 23:44:00,51.5,40.0,30.23,NW,312,0.0,0.0,64,0.00,,,0.00,weatherlink.com 1.10,2013-05-18 03:44:00,
2013-05-17 23:59:00,51.2,40.0,30.23,NW,311,0.0,0.0,66,0.00,,,0.00,weatherlink.com 1.10,2013-05-18 03:59:00,